{"data":{"norad_id":69764,"epoch":"2026-09-20T04:46:23.799648Z","epoch_age_seconds":52635,"freshness":"FRESH","line1":"1 69764U 26151B   26263.19888657 -.00000322  00000+0 -13210-4 0  9997","line2":"2 69764  51.8995 235.5991 0000709  57.4412 302.6619 14.79925810 12055","mean_motion":14.7992581,"eccentricity":7.09e-5,"inclination_deg":51.8995,"raan_deg":235.5991,"arg_perigee_deg":57.4412,"mean_anomaly_deg":302.6619,"bstar":-1.321e-5,"rev_number":1205,"period_min":97.302174897538,"perigee_km":629.06148071656,"apogee_km":630.05517191384,"semimajor_km":7007.6953263152,"source":"CELESTRAK","updated_at":"2026-09-20T09:00:25.087680Z"}}